User: anonymous   Login
Location: Unspecified
(0.0000°N, 0.0000°E)
Time: 05:22:56
(UTC+00:00)
Language:

SAPPHIRE - Orbit

View from above orbital plane
View from above orbital plane
View from above satellite
View from above satellite

Ground track
Ground track

The orbit data is extracted from the following two-line orbital elements,

1 39088U 13009C   18319.59305486 -.00000016 +00000-0 +99987-5 0  9998
2 39088 098.5139 161.2022 0010908 201.0999 158.9737 14.34184543299363
Epoch (UTC): 15 November 2018 14:13:59
Eccentricity: 0.0010908
inclination: 98.5139°
perigee height: 770 km
apogee height: 785 km
right ascension of ascending node: 161.2022°
argument of perigee: 201.0999°
revolutions per day: 14.34184543
mean anomaly at epoch: 158.9737°
orbit number at epoch: 29936

The dashed part of the orbit path shows where the satellite is in the earth's shadow,  

DLR